DateTimeUTC,F1_A11,F1_S11,BsB_S11,BsG_S11,BsR_S11,BbsB_S11,BbsG_S11,BbsR_S11,BaB_A11,BaG_A11,BaR_A11,Tu_S11,T_S11,Uu_S11,U_S11,P_S11,T1_A11
2021-04-01T01:00:00Z,00000200,21000000,,,,,,,-000.32,-000.03,-000.13,16.0,23.6,,00.0,0655.5,30.9
2021-04-01T01:01:00Z,00000200,21000000,,,,,,,0000.06,0000.26,-000.17,16.1,23.6,,00.0,0655.5,30.9
2021-04-01T01:02:00Z,00000200,21000000,,,,,,,-000.35,-000.38,0000.14,16.1,23.6,,00.0,0655.5,30.9
2021-04-01T01:03:00Z,00000200,61000000,,,,,,,0000.16,-000.07,-000.24,16.1,23.6,,00.0,0655.5,30.9
2021-04-01T01:04:00Z,00000200,41000000,0002.52,0001.44,0001.12,0000.51,0000.27,0000.18,0000.35,0000.75,0000.36,16.3,23.5,,00.0,0656.5,30.9
2021-04-01T01:05:00Z,00000200,01000000,0001.76,0001.46,0000.80,-000.03,-000.04,0000.13,0000.57,-000.15,0000.21,16.3,23.4,,00.0,0656.6,30.9
2021-04-01T01:06:00Z,00000200,01000000,0001.49,0001.35,0000.68,-000.19,0000.17,0000.28,0000.01,0000.46,0000.22,16.2,23.3,,00.0,0656.6,30.9
2021-04-01T01:07:00Z,00000200,01000000,0001.77,0001.72,0000.79,0000.27,0000.32,0000.10,0000.49,0000.63,0000.46,16.2,23.3,,00.0,0656.6,30.9
2021-04-01T01:08:00Z,00000200,01000000,0002.57,0001.57,0001.02,0000.42,-000.08,0000.20,0000.47,0000.32,0000.26,16.1,23.3,,00.0,0656.6,30.8
2021-04-01T01:09:00Z,00000200,01000000,0002.15,0001.75,0000.86,-000.01,0000.21,0000.26,0000.68,0000.45,0000.67,16.1,23.3,,00.0,0656.6,30.8
2021-04-01T01:10:00Z,00000200,01000000,0001.83,0001.57,0000.82,0000.44,0000.35,0000.02,0000.73,0000.99,0000.68,16.1,23.2,,00.0,0656.6,30.8
2021-04-01T01:11:00Z,00000200,01000000,0001.79,0001.35,0000.75,0000.36,0000.04,0000.33,0001.12,0000.55,0000.49,16.1,23.2,,00.0,0656.6,30.9
2021-04-01T01:12:00Z,00000200,01000000,0002.86,0001.36,0000.78,-000.14,0000.21,0000.18,0000.96,0001.11,0000.96,16.2,23.2,,00.0,0656.6,30.9
2021-04-01T01:13:00Z,00000200,01000000,0001.94,0001.07,0000.86,-000.39,0000.09,0000.37,0000.94,0000.81,0000.44,16.2,23.3,,00.0,0656.6,30.9
2021-04-01T01:14:00Z,00000200,01000000,0002.34,0001.59,0000.55,0000.22,0000.20,0000.08,0000.77,0000.71,0000.47,16.3,23.3,,00.0,0656.6,30.9
2021-04-01T01:15:00Z,00000200,01000000,0001.48,0001.41,0001.13,0000.60,0000.25,0000.36,0000.47,0000.62,0000.36,16.4,23.3,,00.0,0656.6,30.9
2021-04-01T01:16:00Z,00000200,01000000,0002.44,0001.53,0000.80,0000.01,0000.27,0000.13,0000.92,0000.34,0000.65,16.4,23.3,,00.0,0656.6,30.9
2021-04-01T01:17:00Z,00000200,01000000,0002.44,0001.41,0000.75,0000.29,0000.09,-000.07,0000.24,0000.60,-000.19,16.4,23.3,,00.0,0656.6,30.9
2021-04-01T01:18:00Z,00000200,01000000,0002.23,0001.74,0000.96,-000.05,0000.31,0000.18,0000.27,0000.53,0000.54,16.4,23.3,,00.0,0656.6,30.9
2021-04-01T01:19:00Z,00000200,01000000,0001.48,0001.57,0000.58,0000.02,0000.01,0000.09,0000.57,0000.28,0000.29,16.3,23.3,,00.0,0656.6,30.9
2021-04-01T01:20:00Z,00000200,01000000,0001.92,0001.63,0000.84,0000.19,0000.18,0000.08,0000.33,0000.09,0000.82,16.2,23.3,,00.0,0656.6,30.9
2021-04-01T01:21:00Z,00000200,01000000,0002.33,0001.34,0001.05,0000.13,0000.40,0000.29,0000.69,0000.59,-000.09,16.2,23.2,,00.0,0656.7,30.9
2021-04-01T01:22:00Z,00000200,01000000,0002.57,0001.49,0000.88,0000.43,0000.15,0000.46,0000.46,0000.23,0000.27,16.2,23.2,,00.0,0656.7,30.8
2021-04-01T01:23:00Z,00000200,01000000,0001.54,0001.19,0000.69,-000.01,0000.14,0000.15,0000.47,0000.87,0000.52,16.1,23.2,,00.0,0656.6,30.8
2021-04-01T01:24:00Z,00000200,01000000,0002.18,0001.45,0000.67,0000.11,0000.53,0000.20,0000.95,0000.66,0000.68,16.1,23.2,,00.0,0656.6,30.8
2021-04-01T01:25:00Z,00000200,01000000,0001.57,0001.28,0000.66,0000.11,0000.24,0000.23,0000.73,0000.75,0000.39,16.1,23.1,,00.0,0656.6,30.8
2021-04-01T01:26:00Z,00000200,01000000,0001.86,0000.89,0000.79,0000.40,0000.29,0000.18,0000.88,0000.64,0000.68,16.1,23.1,,00.0,0656.5,30.8
2021-04-01T01:27:00Z,00000200,01000000,0001.82,0001.33,0000.82,-000.11,0000.39,0000.20,0000.69,0000.79,0000.78,16.2,23.2,,00.0,0656.5,30.9
2021-04-01T01:28:00Z,00000200,01000000,0002.08,0001.28,0000.77,0000.75,0000.35,0000.23,0000.79,0000.67,0000.28,16.2,23.2,,00.0,0656.5,30.9
2021-04-01T01:29:00Z,00000200,01000000,0001.87,0001.29,0000.92,0000.34,0000.11,0000.39,0000.52,0000.36,0000.48,16.3,23.2,,00.0,0656.6,30.9
2021-04-01T01:30:00Z,00000200,01000000,0001.75,0001.25,0000.75,0000.51,0000.28,0000.17,0000.04,0000.53,0000.52,16.4,23.2,,00.0,0656.6,30.9
2021-04-01T01:31:00Z,00000200,01000000,0002.25,0001.38,0000.93,0000.41,0000.27,0000.24,0000.51,0000.43,0000.28,16.4,23.3,,00.0,0656.6,30.9
2021-04-01T01:32:00Z,00000200,01000000,0001.67,0001.31,0000.87,0000.56,0000.08,0000.08,0000.36,0000.07,-000.04,16.4,23.3,,00.0,0656.5,30.9
2021-04-01T01:33:00Z,00000200,01000000,0001.79,0001.14,0001.01,0000.40,0000.35,0000.15,0000.82,0000.73,0000.86,16.4,23.3,,00.0,0656.5,30.9
2021-04-01T01:34:00Z,00000200,01000000,0001.86,0001.05,0000.88,-000.05,0000.15,0000.33,0000.74,0000.43,0000.20,16.4,23.3,,00.0,0656.5,30.9
2021-04-01T01:35:00Z,00000200,01000000,0002.08,0001.22,0000.99,0000.48,0000.01,0000.21,0000.68,0000.88,0000.60,16.3,23.2,,00.0,0656.4,30.9
2021-04-01T01:36:00Z,00000200,01000000,0001.93,0001.18,0000.90,0000.69,0000.35,-000.01,0000.97,0000.82,0000.44,16.3,23.2,,00.0,0656.4,30.8
2021-04-01T01:37:00Z,00000200,01000000,0001.57,0001.20,0000.52,0000.42,0000.11,0000.34,0000.52,0000.30,0000.36,16.2,23.2,,00.0,0656.4,30.8
2021-04-01T01:38:00Z,00000200,01000000,0002.03,0001.26,0000.80,0000.28,0000.38,0000.28,0000.38,0000.79,0000.08,16.2,23.2,,00.0,0656.3,30.8
2021-04-01T01:39:00Z,00000200,01000000,0001.22,0001.42,0000.70,0000.20,0000.30,0000.14,0000.52,0000.04,0000.59,16.1,23.1,,00.0,0656.3,30.8
2021-04-01T01:40:00Z,00000200,01000000,0001.45,0001.01,0000.67,0000.45,0000.20,0000.33,0000.52,0000.79,0000.92,16.1,23.1,,00.0,0656.2,30.8
2021-04-01T01:41:00Z,00000200,01000000,0001.09,0000.96,0000.68,0000.09,0000.35,0000.12,0000.63,0000.33,-000.04,16.2,23.1,,00.0,0656.2,30.8
2021-04-01T01:42:00Z,00000200,01000000,0000.84,0001.32,0000.87,0000.36,0000.26,0000.18,0000.83,0000.60,0000.49,16.2,23.1,,00.0,0656.2,30.9
2021-04-01T01:43:00Z,00000200,01000000,0001.54,0001.35,0000.51,0000.21,0000.10,-000.04,0000.41,0000.73,0000.53,16.3,23.2,,00.0,0656.2,30.9
2021-04-01T01:44:00Z,00000200,01000000,0001.60,0001.51,0000.41,0000.10,0000.22,-000.05,0000.72,0000.49,0000.03,16.3,23.2,,00.0,0656.2,30.9
2021-04-01T01:45:00Z,00000200,01000000,0001.94,0001.44,0000.50,-000.31,0000.15,-000.07,0000.43,0000.52,0001.00,16.4,23.2,,00.0,0656.2,30.9
2021-04-01T01:46:00Z,00000200,01000000,0001.82,0001.50,0000.78,0000.19,0000.34,0000.16,0000.12,0000.17,0000.32,16.5,23.2,,00.0,0656.2,30.9
2021-04-01T01:47:00Z,00000200,01000000,0002.42,0001.41,0000.66,0000.16,0000.17,0000.09,0000.36,0000.26,-000.06,16.5,23.3,,00.0,0656.2,30.9
2021-04-01T01:48:00Z,00000200,01000000,0001.81,0001.56,0000.59,0000.60,0000.43,-000.09,0000.27,0000.20,0000.12,16.5,23.3,,00.0,0656.1,30.9
2021-04-01T01:49:00Z,00000200,01000000,0001.57,0001.15,0000.59,0000.39,0000.20,0000.23,0000.91,0000.69,0000.09,16.4,23.3,,00.0,0656.1,30.9
2021-04-01T01:50:00Z,00000200,01000000,0001.61,0001.55,0000.98,0000.18,0000.09,-000.03,0000.03,0000.26,0000.50,16.4,23.2,,00.0,0656.1,30.9
2021-04-01T01:51:00Z,00000200,01000000,0002.56,0001.37,0000.86,0000.36,0000.13,0000.18,0000.54,0000.61,0000.18,16.3,23.2,,00.0,0656.1,30.9
2021-04-01T01:52:00Z,00000200,01000000,0001.30,0001.42,0000.99,0000.03,0000.08,0000.25,0000.22,0000.22,0000.41,16.3,23.2,,00.0,0656.1,30.8
2021-04-01T01:53:00Z,00000200,01000000,0001.96,0001.11,0000.48,0000.08,0000.06,0000.10,0000.14,0000.21,0000.02,16.2,23.2,,00.0,0656.1,30.8
2021-04-01T01:54:00Z,00000200,01000000,0001.64,0001.40,0000.82,-000.08,0000.08,0000.19,0000.82,0000.48,0000.60,16.2,23.1,,00.0,0656.0,30.8
2021-04-01T01:55:00Z,00000200,01000000,0002.26,0001.32,0000.83,-000.30,0000.18,-000.03,0000.59,0000.57,0000.49,16.2,23.1,,00.0,0656.0,30.8
2021-04-01T01:56:00Z,00000200,01000000,0001.38,0001.29,0000.62,0000.50,0000.13,0000.30,0001.02,0000.67,0000.43,16.2,23.1,,00.0,0655.9,30.8
2021-04-01T01:57:00Z,00000200,41000000,,,,,,,-000.48,-000.41,-000.14,16.3,23.2,,00.0,0655.9,30.9
2021-04-01T01:58:00Z,00000200,61000000,,,,,,,0000.18,0000.47,0000.03,16.0,23.3,,00.0,0655.0,30.9
2021-04-01T01:59:00Z,00000200,21000000,,,,,,,-000.26,0000.01,0000.37,16.0,23.5,,00.0,0654.9,30.9
